Location: *
(49.5667°N, 1.3667°W)
Time: 10:16:37
(UTC+00:00)

Cosmos 1821 Rocket - Pass Details

Date: 20 September 2019
Orbit: 944 x 1005 km, 82.9° (Epoch: 18 October)

Event Time Altitude Azimuth Distance (km) Brightness Sun altitude
Rises 21:30:44 0° 347° (NNW) 3,663 7.8 -30.3°
Reaches altitude 10° 21:33:18 10° 343° (NNW) 2,704 7.0 -30.6°
Maximum altitude 21:39:16 54° 268° (W) 1,145 4.4 -31.3°
Enters shadow 21:39:50 52° 248° (WSW) 1,167 4.4 -31.4°
